Regional Weather Roundup
Issued by NWS

Home | Current Version | Previous Version | Graphics & Text | Print | Product List | Glossary Off
Versions: 1 2 3 4 5 6 7 8 9 10 11 12 13 14 15 16 17 18 19 20 21 22 23 24 25 26 27 28 29 30 31 32 33 34 35 36 37 38 39 40 41 42 43 44 45 46 47 48 49 50

000
ASUS43 KMKX 201810
RWRWI

WISCONSIN REGIONAL WEATHER ROUNDUP
NATIONAL WEATHER SERVICE MILWAUKEE/SULLIVAN WI
1200 PM CST TUE FEB 20 2018

NOTE: "FAIR" INDICATES FEW OR NO CLOUDS BELOW 12,000 FEET WITH NO
SIGNIFICANT WEATHER AND/OR OBSTRUCTIONS TO VISIBILITY.

WIZ001-002-006>008-014>016-023>028-201900-
NORTHWEST WISCONSIN

CITY           SKY/WX    TMP DP  RH WIND       PRES   REMARKS
SUPERIOR ARPT  FLURRIES  13   8  81 NW7       29.92R WCI   2
6HR MIN TEMP:  12; 6HR MAX TEMP:  16;

ASHLAND        CLOUDY    20  18  92 N9        29.85F FOG     WCI   9
6HR MIN TEMP:  20; 6HR MAX TEMP:  22; 6HR PCP: TRACE;

HAYWARD        CLOUDY    23  19  85 NW3       29.83R
6HR MIN TEMP:  19; 6HR MAX TEMP:  23; 6HR PCP:  0.02;

SIREN          CLOUDY    16  13  87 NW10      29.90R WCI   3
6HR MIN TEMP:  16; 6HR MAX TEMP:  20;

CUMBERLAND     CLOUDY    21  18  86 W10       29.84S WCI  10
RICE LAKE      CLOUDY    23  20  89 W6        29.87R WCI  15
6HR MIN TEMP:  19; 6HR MAX TEMP:  23;

CHETEK         CLOUDY    22  20  89 SW3       29.87R
6HR MIN TEMP:  19; 6HR MAX TEMP:  22;

LADYSMITH      CLOUDY    23  21  92 W7        29.84S FOG     WCI  15
6HR MIN TEMP:  20; 6HR MAX TEMP:  23;

EAU CLAIRE     CLOUDY    23  20  88 W12       29.88R WCI  12
6HR MIN TEMP:  21; 6HR MAX TEMP:  23;

MENOMONIE      CLOUDY    24  21  86 W9        29.89R WCI  15
6HR MIN TEMP:  21; 6HR MAX TEMP:  24; 6HR PCP:  0.01;

NEW RICHMOND   CLOUDY    20  16  84 W10       29.91R WCI   9
6HR MIN TEMP:  19; 6HR MAX TEMP:  22;

OSCEOLA        CLOUDY    19  15  86 W12       29.96R WCI   6
6HR MIN TEMP:  19; 6HR MAX TEMP:  21;

$$

WIZ003>005-009-010-017-018-201900-
NORTH CENTRAL WISCONSIN

CITY           SKY/WX    TMP DP  RH WIND       PRES   REMARKS
MANITOWISH WTR CLOUDY    22  22 100 W3        29.75F FOG
6HR MIN TEMP:  19; 6HR MAX TEMP:  22;

ARBOR VITAE    CLOUDY    25  24  95 SW7       29.76S FOG     WCI  17
6HR MIN TEMP:  22; 6HR MAX TEMP:  25;

WOODRUFF       CLOUDY    25  24  95 SW7       29.76S FOG     WCI  17
6HR MIN TEMP:  22; 6HR MAX TEMP:  25;

RHINELANDER    FOG       27  27 100 W10       29.75S VSB 1   WCI  17
6HR MIN TEMP:  23; 6HR MAX TEMP:  27; 6HR PCP:  0.01;

EAGLE RIVER    MIX PCPN  26  26 100 W6        29.75S WCI  19
6HR MIN TEMP:  22; 6HR MAX TEMP:  26;

LAND O LAKES   LGT SNOW  26  26  97 SW5       29.76S WCI  21
6HR MIN TEMP:  21; 6HR MAX TEMP:  26;

PHILLIPS       CLOUDY    22  22 100 SW3       29.78F FOG
6HR MIN TEMP:  19; 6HR MAX TEMP:  22;

TOMAHAWK       CLOUDY    27  26  95 W3        29.77F FOG
6HR MIN TEMP:  23; 6HR MAX TEMP:  27;

MEDFORD        CLOUDY    25  24  96 SW8       29.80R FOG     WCI  17
6HR MIN TEMP:  25; 6HR MAX TEMP:  27;

MERRILL        CLOUDY    30  30 100 W10       29.79S FOG     WCI  21
6HR MIN TEMP:  27; 6HR MAX TEMP:  31;

$$

WIZ029-030-035-036-043>047-201900-
CENTRAL WISCONSIN

CITY           SKY/WX    TMP DP  RH WIND       PRES   REMARKS
WAUSAU         CLOUDY    31  30  96 W8        29.78R WCI  23
6HR MIN TEMP:  28; 6HR MAX TEMP:  31; 6HR PCP: TRACE;

MOSINEE        CLOUDY    30  30 100 W5        29.80  WCI  25
MARSHFIELD     CLOUDY    30  28  92 W14       29.81R WCI  19
6HR MIN TEMP:  28; 6HR MAX TEMP:  30; 6HR PCP: TRACE;

STEVENS POINT  CLOUDY    31  31 100 W9        29.82R WCI  23
6HR MIN TEMP:  28; 6HR MAX TEMP:  31; 6HR PCP:  0.01;

WAUPACA        CLOUDY    35  33  93 CALM      29.81S FOG
6HR MIN TEMP:  32; 6HR MAX TEMP:  35; 6HR PCP:  0.08;

WAUTOMA        CLOUDY    33  32  96 SW6       29.83S WCI  28
6HR MIN TEMP:  30; 6HR MAX TEMP:  33; 6HR PCP:  0.06;

WISC RAPIDS    CLOUDY    32  30  92 W9        29.85R WCI  24
6HR MIN TEMP:  30; 6HR MAX TEMP:  32; 6HR PCP:  0.01;

CAMP DOUGLAS   CLOUDY    34  32  93 NW10G21   29.83R WCI  26
                                      6HR PCP:  0.01;

$$

WIZ011>013-019>022-031-037>040-048>050-201900-
NORTHEAST WISCONSIN

CITY           SKY/WX    TMP DP  RH WIND       PRES   REMARKS
ANTIGO         FOG       30  30 100 W8        29.76S VSB 1/2 WCI  23
6HR MIN TEMP:  25; 6HR MAX TEMP:  30;

SHAWANO        CLOUDY    34  32  93 CALM      29.80S FOG
6HR MIN TEMP:  31; 6HR MAX TEMP:  34; 6HR PCP:  0.08;

OCONTO         CLOUDY    32  31  97 SW3       29.80F
6HR MIN TEMP:  29; 6HR MAX TEMP:  32; 6HR PCP:  0.11;

STURGEON BAY   CLOUDY    33  32  96 W3        29.80S FOG
6HR MIN TEMP:  28; 6HR MAX TEMP:  33; 6HR PCP:  0.15;

GREEN BAY      LGT RAIN  34  32  92 SW7       29.81S FOG     WCI  28
6HR MIN TEMP:  31; 6HR MAX TEMP:  34; 6HR PCP:  0.20;

MANITOWOC      LGT RAIN  39  39 100 SW6       29.82R FOG     WCI  35
6HR MIN TEMP:  32; 6HR MAX TEMP:  40; 6HR PCP:  0.17;

APPLETON       CLOUDY    34  34 100 SW5       29.80R FOG     WCI  30
CLINTONVILLE   CLOUDY    32  32  98 SW6       29.82S WCI  27
6HR MIN TEMP:  30; 6HR MAX TEMP:  32; 6HR PCP:  0.08;

OSHKOSH        LGT RAIN  34  34 100 S5        29.79F FOG     WCI  30
6HR MIN TEMP:  31; 6HR MAX TEMP:  34; 6HR PCP:  0.15;

$$

WIZ032>034-041-042-053>061-201900-
SOUTHWEST WISCONSIN

CITY           SKY/WX    TMP DP  RH WIND       PRES   REMARKS
LA CROSSE      CLOUDY    30  25  81 W15       29.91R WCI  19
6HR MIN TEMP:  30; 6HR MAX TEMP:  33; 6HR PCP: TRACE;

SPARTA         CLOUDY    29  29  99 W7        29.90R FOG     WCI  22
6HR MIN TEMP:  29; 6HR MAX TEMP:  31; 6HR PCP:  0.08;

VIROQUA        CLOUDY    30  30 100 W8        29.87R WCI  22
6HR MIN TEMP:  30; 6HR MAX TEMP:  32; 6HR PCP:  0.01;

BOSCOBEL       LGT RAIN  36  32  85 W9G20     29.88R WCI  29
6HR MIN TEMP:  34; 6HR MAX TEMP:  37; 6HR PCP:  0.05;

PRAIRIE DU CHI CLOUDY    31  30  97 W15       29.91F WCI  20
6HR MIN TEMP:  31; 6HR MAX TEMP:  35; 6HR PCP:  0.05;

PLATTEVILLE    CLOUDY    34  34 100 NW10      29.83F WCI  26
6HR MIN TEMP:  34; 6HR MAX TEMP:  35; 6HR PCP:  0.20;

$$

WIZ056-057-062-063-064-067-068-201900-
SOUTH CENTRAL WISCONSIN

CITY           SKY/WX    TMP DP  RH WIND       PRES   REMARKS
REEDSBURG      CLOUDY    35  35 100 SW12      29.87R WCI  27
6HR MIN TEMP:  31; 6HR MAX TEMP:  35; 6HR PCP:  0.04;

BARABOO/DELLS  CLOUDY    34  34  99 W12       29.84R WCI  26
6HR MIN TEMP:  31; 6HR MAX TEMP:  34; 6HR PCP:  0.04;

LONE ROCK      LGT RAIN  37  35  92 W9        29.86R WCI  30
6HR MIN TEMP:  33; 6HR MAX TEMP:  37; 6HR PCP:  0.18;

MINERAL POINT  LGT RAIN  34  34 100 W13       29.84F WCI  25
MADISON        RAIN      38  37  97 VRB3      29.85R FOG
6HR MIN TEMP:  32; 6HR MAX TEMP:  38; 6HR PCP:  0.22;

MIDDLETON      CLOUDY    38  38 100 W8        29.87R WCI  32
6HR MIN TEMP:  34; 6HR MAX TEMP:  39; 6HR PCP:  0.11;

WATERTOWN      RAIN      39  39 100 CALM      29.81F
6HR MIN TEMP:  32; 6HR MAX TEMP:  39; 6HR PCP:  0.22;

MONROE         LGT SNOW  36  36 100 W21       29.85R WCI  24
JANESVILLE     LGT RAIN  41  41 100 CALM      29.82R VSB 1
$$

WIZ051-052-058>065-066-070>072-201900-
SOUTHEAST WISCONSIN

CITY           SKY/WX    TMP DP  RH WIND       PRES   REMARKS
MILWAUKEE      CLOUDY    44  43  96 SE5       29.80F FOG
6HR MIN TEMP:  40; 6HR MAX TEMP:  50; 6HR PCP:  0.17;

WAUKESHA       FOG       43  43 100 W15G30    29.83R VSB 1/4
MILWAUKEE/TIMM RAIN      46  43  87 W10G29    29.86R
RACINE         FOG       48  48 100 S5        29.82F VSB 1/2
6HR MIN TEMP:  40; 6HR MAX TEMP:  53; 6HR PCP:  0.13;

BURLINGTON     LGT RAIN  45  44  97 W10G29    29.84R VSB 1/4
6HR MIN TEMP:  39; 6HR MAX TEMP:  48; 6HR PCP:  0.07;

KENOSHA        CLOUDY    54  52  93 SE7       29.80F FOG
6HR MIN TEMP:  49; 6HR MAX TEMP:  56; 6HR PCP:  0.27;

FOND DU LAC    RAIN      38  37  97 CALM      29.78F FOG
6HR MIN TEMP:  32; 6HR MAX TEMP:  38; 6HR PCP:  0.19;

SHEBOYGAN      HVY RAIN  40  40 100 S8        29.82R FOG     WCI  34
6HR MIN TEMP:  33; 6HR MAX TEMP:  41; 6HR PCP:  0.20;

WEST BEND      LGT RAIN  43  43 100 W7        29.83R VSB 1
JUNEAU         RAIN      37  37  99 SE7       29.82F WCI  31
6HR MIN TEMP:  31; 6HR MAX TEMP:  38; 6HR PCP:  0.16;

$$

LSZ147-162-201900-
LAKE SUPERIOR

STATION/POSITION TIME  TEMP    WIND        PRES    WAVE
                       AIR SEA DIR/SP/G            HT/PER
                 (UTC) (F)     (DEG/KT/KT) (MB)    (FT/S)
DEVILS ISLAND    1800   18      30/ 11/ 13 1012.1F
SAXON HARBOR     1730   24     280/  5/  8 1010.2R
$$

LMZ867-665-643>646-201900-
LAKE MICHIGAN

STATION/POSITION TIME  TEMP    WIND        PRES



USA.gov is the U.S. government's official web portal to all federal, state and local government web resources and services.